Location: Cheissac
(45.4167°N, 2.4000°E)
Time: 09:10:14
(UTC+00:00)

Daily predictions for brighter satellites

Satellite Brightness Start Highest point End
(mag) Time Altitude Azimuth Time Altitude Azimuth Time Altitude Azimuth
COSMOS 2406 3.3 16:34:16 10° SSW 16:40:01 89° WNW 16:45:47 10° NNE
Meteor 1-31 Rocket 4.5 16:40:49 10° SSW 16:44:22 37° W 16:47:58 10° NNW
Cosmos 1428 Rocket 4.5 16:42:16 10° N 16:48:25 69° E 16:54:34 10° SSE
NOSS 2-2 (C) 4.5 16:44:57 10° NW 16:50:14 88° NE 16:57:44 10° SE
CZ-4B R/B 4.1 16:49:08 10° ESE 16:53:28 26° ENE 16:57:47 10° N
Cosmos 1092 Rocket 4.1 16:47:09 10° N 16:53:33 85° E 16:59:53 10° S
CZ-2D R/B 4.1 16:52:18 10° SE 16:55:34 27° ENE 16:58:51 10° N
Meteor 2-21 4.4 16:51:03 10° N 16:57:08 71° E 17:03:08 10° SSE
ATLAS CENTAUR R/B 3.3 16:46:33 10° WSW 16:57:14 68° NW 17:01:31 10° NE
USA 267 3.4 16:50:52 10° NE 16:57:23 67° SE 17:03:53 10° SW
Cosmos 1939 Rocket 2.9 16:54:05 10° SSE 16:58:08 65° ENE 17:02:10 10° N
USA 306 3.8 16:56:46 10° NW 17:00:34 31° NNE 17:03:51 13° ENE
Cosmos 1151 Rocket 3.4 16:56:40 10° SSE 17:00:43 41° E 17:04:51 10° NNE
Cosmos 1633 Rocket 3.5 16:58:04 10° N 17:02:11 39° ENE 17:06:18 10° SE
COSMO-SKYMED 1 4.0 16:59:18 10° NE 17:02:26 19° E 17:05:33 10° SE
Cosmos 1782 2.7 16:58:48 10° S 17:02:46 84° E 17:06:47 10° N
Cosmos 1666 3.0 17:00:25 10° N 17:03:57 41° ENE 17:07:28 10° SSE
Cosmos 2360 Rocket 3.6 17:01:47 10° N 17:05:31 18° NE 17:08:17 13° ENE
ISS -2.5 17:03:03 10° WNW 17:06:18 44° SW 17:09:32 10° SE
Cosmos 1900 4.5 17:02:38 10° SSW 17:07:22 56° ESE 17:11:53 12° NE
PAYLOAD B 4.5 17:02:52 10° SE 17:08:13 48° ENE 17:13:34 10° N
SeaSat 1 4.5 17:05:22 10° N 17:09:06 22° NW 17:12:49 10° W
SL-08 R/B 4.2 17:05:29 10° N 17:10:01 50° WNW 17:14:27 10° SW
Cosmos 1818 3.6 17:06:15 10° NNW 17:11:41 58° NE 17:17:02 10° SE
CZ-2C R/B 3.5 17:12:30 10° SSW 17:15:25 18° S 17:18:16 10° SE
Cosmos 2279 Rocket 4.0 17:10:37 10° S 17:16:43 62° E 17:22:49 10° NNE
Cosmos 2142 Rocket 4.5 17:11:34 10° S 17:17:38 66° E 17:23:50 10° NNE
ATLAS 5 CENTAUR R/B 3.0 17:10:54 10° NW 17:17:47 32° NNE 17:19:39 19° ENE
Cosmos 841 Rocket 3.9 17:12:46 10° SSW 17:17:52 62° WNW 17:22:59 10° NNE
USA 307 3.7 17:17:20 10° NW 17:21:15 34° NNE 17:23:33 20° ENE
Cosmos 2266 Rocket 4.5 17:15:19 10° N 17:21:16 39° ENE 17:27:12 10° SE
CZ-4C R/B 3.1 17:15:25 10° NW 17:22:44 87° SW 17:31:16 10° SE
Lacrosse 5 rocket 1.2 17:20:49 10° NW 17:24:44 68° NE 17:28:52 10° ESE
Cosmos 2208 Rocket 4.1 17:21:54 10° S 17:27:15 70° ESE 17:32:42 10° NNE
ATLAS 2AS CENTAUR R/B 4.4 17:22:26 10° NW 17:27:33 19° N 17:31:18 13° NE
Cosmos 2322 Rocket 2.8 17:23:35 10° NNW 17:28:48 35° NE 17:34:00 10° ESE
Cosmos 1933 Rocket 4.3 17:25:28 10° NNE 17:29:15 28° ENE 17:32:58 10° SE
AQUARIUS 4.3 17:24:58 10° S 17:29:28 78° WSW 17:33:58 10° NNW
Cosmos 1328 Rocket 3.6 17:26:22 10° S 17:30:44 62° E 17:35:08 10° NNE
USA 234 3.2 17:24:18 10° ESE 17:30:48 70° NNE 17:37:19 10° NW
Cosmos 2150 Rocket 4.1 17:25:47 10° NNW 17:30:50 49° ENE 17:35:54 10° SE
Cosmos 1666 Rocket 3.6 17:27:20 10° N 17:31:48 85° W 17:36:10 10° S
Cosmos 1980 Rocket 3.0 17:26:35 10° NW 17:32:05 53° WSW 17:37:32 10° S
CORIOLIS 4.4 17:29:33 10° S 17:34:56 73° WSW 17:40:24 10° NNW
Cosmos 1470 Rocket 3.7 17:31:02 10° N 17:35:24 51° ENE 17:39:46 10° SSE
Cosmos 1544 3.6 17:32:06 10° N 17:35:28 35° ENE 17:38:50 10° SE
Cosmos 1867 4.4 17:31:30 10° S 17:36:16 32° ESE 17:38:27 24° ENE
Cosmos 1812 3.1 17:32:47 10° SSW 17:36:36 66° W 17:40:27 10° N
Cosmos 1125 Rocket 3.6 17:31:56 10° NNW 17:37:05 52° ENE 17:42:12 10° SE
X-37B 1.6 17:34:34 10° SW 17:37:08 29° SSE 17:37:49 26° SE
PSLV R/B 3.6 17:33:52 10° SSE 17:37:34 86° WSW 17:41:21 10° NNW
H-2A R/B 1.9 17:33:12 10° SSE 17:38:18 76° ENE 17:43:19 10° N
DEBRIS 4.3 17:36:18 10° S 17:38:22 19° ESE 17:38:35 19° ESE
Okean O Rocket 1.9 17:35:57 10° SE 17:40:10 43° ENE 17:44:24 10° N
Meteor 2-8 Rocket 4.4 17:34:31 10° S 17:40:38 71° E 17:46:47 10° NNE
Meteor 1-10 Rocket 4.3 17:35:12 10° S 17:40:47 55° E 17:46:18 10° NNE
Meteor 1-11 Rocket 3.9 17:37:03 10° N 17:42:31 47° ENE 17:48:04 10° SSE
USA 308 3.4 17:40:01 10° NW 17:44:04 42° NNE 17:45:21 32° ENE
SL-16 R/B 2.1 17:43:56 10° NNW 17:49:35 63° ENE 17:55:11 10° SE
ARGOS 3.1 17:44:54 10° SSE 17:50:12 60° ENE 17:55:31 10° N
SKYMED 2 3.6 17:47:47 19° NNE 17:50:47 59° E 17:55:04 10° S
Cosmos 2082 Rocket 3.2 17:45:48 10° SW 17:51:12 43° WNW 17:56:36 10° NNE
deb Chang Zheng 4 3.4 17:51:25 10° SSE 17:55:41 72° ENE 18:00:00 10° N
COSMOS 2455 4.1 17:54:12 10° WSW 17:59:43 36° NW 18:04:54 12° NNE
Feng Yun 1-1 Rocket 4.4 17:59:23 10° SE 18:05:07 54° ENE 18:10:47 10° N
USA 305 2.8 18:04:17 10° NW 18:08:30 60° NNE 18:08:52 58° NE
Cosmos 2333 Rocket 3.4 18:04:26 10° N 18:08:04 25° NNE 18:08:04 25° NNE
Cosmos 1356 Rocket 3.3 18:05:52 10° N 18:10:06 80° E 18:14:22 10° SSE
CZ-2C R/B 2.5 18:06:51 11° NNE 18:11:57 87° WNW 18:17:08 10° SSW
Cosmos 2219 Rocket 3.7 18:12:29 10° N 18:15:05 20° NNE 18:15:05 20° NNE
Aureole 3 Rocket 3.5 18:12:38 10° S 18:17:06 66° E 18:23:26 10° NNE
Cosmos 44 Rocket 4.4 18:12:58 10° NW 18:17:36 43° WSW 18:22:03 10° S
Cosmos 1515 Rocket 3.6 18:13:27 10° SSW 18:17:53 77° W 18:20:27 25° N
Cosmos 1655 Rocket 4.1 18:11:39 10° N 18:18:04 81° W 18:24:24 10° S
Cosmos 921 Rocket 3.8 18:16:26 10° SW 18:20:31 48° WNW 18:22:47 24° N
Spot 2 4.4 18:23:28 45° SE 18:24:50 63° ENE 18:29:51 10° N
CZ-4B R/B 4.0 18:28:32 10° S 18:33:45 49° W 18:38:55 10° NNW
COSMO-SKYMED 1 3.6 18:36:23 22° N 18:38:48 43° WNW 18:42:55 10° SW
USA 267 3.8 18:37:47 34° NNE 18:40:16 50° NNW 18:46:31 10° W
USA 306 3.5 18:36:34 10° NW 18:39:52 53° WNW 18:39:52 53° WNW
Landsat 5 3.9 18:41:36 55° W 18:41:36 55° W 18:45:18 10° SSW
Meteor 1-27 Rocket 3.8 18:38:20 10° SSW 18:43:49 74° W 18:46:30 32° N
Cosmos 2360 Rocket 2.1 18:44:42 10° NNW 18:50:08 80° N 18:50:08 80° N
Cosmos 2237 4.4 18:48:11 10° NNW 18:53:51 69° WSW 18:55:53 40° S
CZ-2C R/B 3.6 18:51:12 10° SW 18:53:23 18° SSW 18:53:23 18° SSW
DMSP B5D2-2 4.5 19:00:33 56° SSW 19:00:33 56° SSW 19:04:40 10° SSW
USA 307 4.5 18:57:10 10° WNW 18:59:35 33° WNW 18:59:35 33° WNW
Lacrosse 5 rocket 3.8 19:00:38 10° W 19:03:30 19° SW 19:04:38 17° SSW
Cosmos 2322 Rocket 3.3 19:07:36 10° NW 19:12:55 41° WSW 19:17:09 15° S
USA 234 4.3 19:10:00 20° S 19:14:05 40° SW 19:20:10 10° WNW
Okean O Rocket 4.1 19:13:22 10° SW 19:16:41 20° W 19:20:02 10° NW
NOSS 3-4 (A) 4.3 19:11:13 10° NNW 19:16:19 48° N 19:16:19 48° N
NOSS 3-4 (C) 4.3 19:11:20 10° NNW 19:16:24 47° N 19:16:24 47° N
Cosmos 1867 4.5 19:14:26 10° WSW 19:19:09 45° WNW 19:19:09 45° WNW
ATLAS 2AS CENTAUR R/B 4.0 19:14:22 10° NNW 19:18:44 28° N 19:18:44 28° N
NOSS 3-3 (A) 4.4 19:21:10 10° SW 19:25:51 55° W 19:25:51 55° W
NOSS 3-3 (C) 4.4 19:21:15 10° SW 19:25:55 54° W 19:25:55 54° W
SL-16 R/B 4.5 19:29:01 10° NW 19:33:10 21° W 19:37:17 10° SSW
Cosmos 2333 Rocket 4.3 19:48:16 10° NNW 19:50:07 21° NW 19:50:07 21° NW
